Printer-friendly version

IAU Minor Planet Center

Minor Planet Center

MPEC 2005-Y36 : 2005 YT8

The following Minor Planet Electronic Circular may be linked-to from your own Web pages, but must not otherwise be redistributed electronically.

A form allowing access to any MPEC is at the bottom of this page.


Read MPEC 2005-Y35 Read MPEC 2005-Y37


M.P.E.C. 2005-Y36                                Issued 2005 Dec. 26, 05:07 UT

     The Minor Planet Electronic Circulars contain information on unusual
         minor planets and routine data on comets.  They are published
   on behalf of Commission 20 of the International Astronomical Union by the
          Minor Planet Center, Smithsonian Astrophysical Observatory,
                          Cambridge, MA 02138, U.S.A.

                  Supported in part by the Brinson Foundation
                  Supported in part by the TABASGO Foundation
             Prepared using the Tamkin Foundation Computer Network

                              MPC@CFA.HARVARD.EDU
          URL http://cfa-www.harvard.edu/iau/mpc.html  ISSN 1523-6714

                                   2005 YT8

Observations:
     K05Y08T* C2005 12 24.13513 00 31 49.93 +36 21 54.4          19.1   EY036704
     K05Y08T  C2005 12 24.14807 00 31 57.00 +36 21 42.3          19.4   EY036704
     K05Y08T  C2005 12 24.16115 00 32 04.10 +36 21 30.7          19.2   EY036704
     K05Y08T  C2005 12 24.17416 00 32 11.20 +36 21 18.5          19.1   EY036704
     K05Y08T  C2005 12 24.18710 00 32 18.28 +36 21 05.3          19.3   EY036704
     K05Y08T 2C2005 12 25.09026 00 41 19.69 +36 07 50.9          17.7 R EY036H06
     K05Y08T 2C2005 12 25.09583 00 41 22.85 +36 07 46.4          18.4 R EY036H06
     K05Y08T 2C2005 12 25.10163 00 41 26.17 +36 07 39.1          18.1 R EY036H06
     K05Y08T 5C2005 12 25.11829 00 41 37.13 +36 07 21.5          18.5 R EY036673
     K05Y08T 5C2005 12 25.12245 00 41 39.56 +36 07 17.1                 EY036673
     K05Y08T 5C2005 12 25.12731 00 41 42.48 +36 07 12.0                 EY036673
     K05Y08T 5C2005 12 25.13275 00 41 45.56 +36 07 05.8                 EY036673
     K05Y08T  C2005 12 25.19392 00 42 20.98 +36 05 56.4          19.1 V EY036703
     K05Y08T  C2005 12 25.19709 00 42 22.38 +36 05 37.7                 EY036734
     K05Y08T  C2005 12 25.20052 00 42 24.38 +36 05 31.3                 EY036734
     K05Y08T  C2005 12 25.20164 00 42 25.59 +36 05 47.0          19.3 V EY036703
     K05Y08T  C2005 12 25.20397 00 42 26.48 +36 05 28.5          18.6 R EY036734
     K05Y08T  C2005 12 25.20931 00 42 30.24 +36 05 38.0          19.5 V EY036703
     K05Y08T  C2005 12 25.21701 00 42 34.81 +36 05 28.7          19.1 V EY036703
     K05Y08T  C2005 12 25.25529 00 42 57.94 +36 04 40.3          18.8 R EY036854
     K05Y08T  C2005 12 25.26087 00 43 01.20 +36 04 28.0          18.8 R EY036854
     K05Y08T  C2005 12 25.26739 00 43 05.38 +36 04 23.7          19.1 R EY036854
     K05Y08T  C2005 12 25.71072 00 47 54.54 +35 56 15.9          18.5 R EY036143
     K05Y08T  C2005 12 25.71413 00 47 56.64 +35 56 12.2          18.7 R EY036143
     K05Y08T  C2005 12 25.71759 00 47 58.80 +35 56 07.9          18.3 R EY036143
     K05Y08T  C2005 12 25.78340 00 48 40.57 +35 54 42.9                 EY036J95
     K05Y08T  C2005 12 25.78697 00 48 42.76 +35 54 38.6                 EY036J95
     K05Y08T  C2005 12 25.79053 00 48 45.02 +35 54 34.0          18.7 R EY036J95
     K05Y08T  C2005 12 25.83752 00 49 13.15 +35 53 34.4          18.7 R EY036118
     K05Y08T  C2005 12 25.83934 00 49 14.37 +35 53 31.1          18.5 R EY036118
     K05Y08T  C2005 12 25.84167 00 49 15.64 +35 53 28.4          18.5 R EY036118
     K05Y08T  C2005 12 26.06249 00 51 44.05 +35 49 14.9          18.8 R EY036734
     K05Y08T  C2005 12 26.06326 00 51 44.67 +35 49 13.8          18.9 R EY036734
     K05Y08T  C2005 12 26.06404 00 51 44.93 +35 49 13.2          19.0 R EY036734
     K05Y08T  C2005 12 26.06481 00 51 45.51 +35 49 11.3          18.5 R EY036734
     K05Y08T  C2005 12 26.06559 00 51 46.00 +35 49 10.4          18.5 R EY036734

Observer details:
118 Modra.  Observer S. Gajdos.  0.6-m f/5.5 reflector + CCD.
143 Gnosca.  Observer S. Sposetti.  0.40-m f/4 reflector + CCD.
673 Table Mountain Observatory, Wrightwood.  Observer J. Young.  0.6-m f/16
    Cassegrain + CCD.
703 Catalina Sky Survey.  Observer E. C. Beshore.  Measurers E. C. Beshore,
    E. J. Christensen, G. J. Garradd, A. D. Grauer, R. E. Hill, R. A. Kowalski,
    S. M. Larson, R. H. McNaught.  0.68-m Schmidt + CCD.
704 Lincoln Laboratory ETS, New Mexico.  Observers M. Bezpalko, L. Manguso,
    D. Torres, R. Kracke, A. Milner, H. Love.  Measurers J. Stuart, R. Sayer,
    J. Evans, J. Kommers.  1.0-m f/2.15 reflector + CCD.
734 Farpoint Observatory.  Observer G. Hug.  0.7-m reflector + CCD.
854 Sabino Canyon Observatory, Tucson.  Observer J. E. McGaha.  0.36-m f/10.0
    Schmidt-Cassegrain + CCD.
H06 New Mexico Skies Observatory.  Observer R. Hutsebaut.  0.25-m reflector
    + CCD.
J95 Great Shefford.  Observer P. Birtwhistle.  0.40-m f/6.0 Schmidt-Cassegrain
    + CCD.

Orbital elements:
2005 YT8                                                             PHA 0.037D
Epoch 2005 Dec. 16.0 TT = JDT 2453720.5                 MPC
M 357.81723              (2000.0)            P               Q
n   0.24241052     Peri.  164.51095     +0.02856316     -0.98268346
a   2.5474270      Node   283.58597     +0.89593808     +0.10638532
e   0.5986500      Incl.   10.85637     +0.44325963     -0.15170820
P   4.07           H   21.5           G   0.15
From 35 observations 2005 Dec. 24-26.

Ephemeris:
2005 YT8                 a,e,i = 2.55, 0.60, 11                  q = 1.0224
Date    TT    R. A. (2000) Decl.     Delta      r     Elong.  Phase     V
2005 12 26    00 51.05   +35 50.7    0.102    1.022   109.7    64.9    18.9
2006 01 05    03 23.14   +24 53.3    0.0741   1.033   130.1    46.8    17.7
2006 01 15    05 54.89   +02 12.7    0.0883   1.059   146.9    30.5    17.7
2006 01 25    07 11.69   -09 28.1    0.136    1.099   145.8    30.3    18.7
2006 02 04    07 49.83   -13 08.2    0.197    1.152   144.5    29.8    19.6
2006 02 14    08 12.91   -13 41.7    0.267    1.213   144.0    28.5    20.3
2006 02 24    08 29.84   -12 57.1    0.345    1.282   143.0    27.7    21.0
2006 03 06    08 44.43   -11 40.9    0.433    1.356   140.8    27.5    21.6

Gareth V. Williams           (C) Copyright 2005 MPC           M.P.E.C. 2005-Y36

Read MPEC 2005-Y35 Read MPEC 2005-Y37


MPEC number:

Enter an
MPEC number in one of the following forms:
  • 1997-B01 (the full form)
  • J97B01 (the packed version of the full form)
  • B01 (the abbreviated form)

Valid HTML 4.01!